Regional Weather Roundup
Issued by NWS Lake Charles, LA

Home | Current Version | Previous Version | Text Only | Print | Product List | Glossary On
Versions: 1 2 3 4 5 6 7 8 9 10 11 12 13 14 15 16 17 18 19 20 21 22 23 24 25 26 27 28 29 30 31 32 33 34 35 36 37 38 39 40 41 42 43 44 45 46 47 48 49 50
000
ASUS44 KLCH 280110
RWRLCH
RWRLCH
REGIONAL WEATHER ROUNDUP
NATIONAL WEATHER SERVICE LAKE CHARLES LA
700 PM CST TUE JAN 27 2015

Note: "fair" indicates few or no clouds below 12,000 feet with no
significant weather and/or obstructions to visibility.


ACROSS SOUTHEAST TEXAS

CITY           SKY/WX    TMP DP  RH WIND       PRES   REMARKS
BEAUMONT       CLEAR     58  46  64 S6        30.13R
BEAUMONT CITY    N/A     62  49  62 S6        30.14R
ORANGE         CLEAR     59  50  72 S6        30.15R
JASPER         CLEAR     56  48  73 CALM      30.16R
$$

ACROSS CENTRAL LOUISIANA

CITY           SKY/WX    TMP DP  RH WIND       PRES   REMARKS
LEESVILLE      CLEAR     55  45  68 VRB1      30.13R
FULLERTON        N/A     57  41  55 CALM      30.11R
ALEXANDRIA INT CLEAR     60  41  49 CALM      30.12R
ESLER FIELD    CLEAR     54  42  64 CALM      30.14R
DERIDDER         N/A     58  45  62 CALM      30.14R
OAKDALE        CLEAR     49  46  89 CALM      30.14R
OPELOUSAS        N/A     56  46  70 CALM      30.14R
$$

ACROSS SOUTHWEST AND SOUTH CENTRAL LOUISIANA

CITY           SKY/WX    TMP DP  RH WIND       PRES   REMARKS
SULPHUR        CLEAR     59  48  67 S5        30.14R
LAKE CHARLES   CLEAR     61  48  62 S6        30.13R
CHENNAULT INT  NOT AVBL
CAMERON PHI      N/A     57  54  88 SW5       30.17R
DEQUINCY         N/A     57  49  75 CALM      30.13R
JENNINGS         N/A     58  47  65 CALM      30.13R
LAFAYETTE      PTCLDY    63  38  39 CALM      30.13R
NEW IBERIA     CLEAR     60  44  55 CALM      30.13R
ABBEVILLE        N/A     58  42  54 CALM      30.13S
PATTERSON      CLEAR     57  46  67 SW5       30.14R
SALT POINT       N/A     54  52  93 SW3       30.13R
$$

SELECTED SITES ACROSS THE REGION

CITY           SKY/WX    TMP DP  RH WIND       PRES   REMARKS
HOUSTON BUSH   PTCLDY    59  48  67 CALM      30.12R
HOUSTON HOBBY  PTCLDY    67  45  45 E6        30.11S
GALVESTON      CLEAR     58  56  93 SE7       30.13R
COLLEGE STAT   CLEAR     63  47  55 CALM      30.12R
CONROE         CLEAR     56  48  74 N3        30.13R
HUNTSVILLE     CLEAR     63  45  51 CALM      30.12R
LUFKIN         CLEAR     59  48  67 E3        30.13R
SHREVEPORT     CLEAR     58  39  49 CALM      30.12R
MONROE         CLEAR     51  40  65 CALM      30.16R
NATCHEZ MS     CLEAR     57  36  44 NW3       30.16R
BATON ROUGE    PTCLDY    60  34  37 CALM      30.12R
N.O. INTL ARPT CLEAR     64  40  41 N5        30.11R
SLIDELL        CLEAR     53  45  74 CALM      30.11R
$$

MARINE REPORTS

STATION/POSITION TIME  TEMP    WIND        PRES    VSBY  WAVE
                       AIR SEA DIR/SP/G                  HT/PER
                 (UTC) (F)     (DEG/KT/KT) (MB)    (MI)  (FT/S)
BUOY 30 S HIGH I 0100   58 57  180/  4/  6 1020.1R         1/ 4
SEA RIM ST PARK  0100   59     200/  5/  5 1021.1R
PORT ARTHUR      0100      53  200/  4/  5 1020.5R
SABINE PASS N    0100   57 54  220/  3/  5 1020.5R
TEXAS POINT      NOT AVBL
CALCASIEU PASS   0100   57 55  250/  3/  4   N/A
LK CHARLES BEACH 0100   67 52              1020.4R
MARSH ISLAND     0000   58     280/  8/  9   N/A
FRESH WATER LOCK 0100   56 56  250/  5/  5 1020.5R
AMERADA PASS     0100   57 48  240/  3/  6 1020.2R
$$


USA.gov is the U.S. government's official web portal to all federal, state and local government web resources and services.